Regional Weather Roundup
Issued by NWS

Home | Current Version | Previous Version | Text Only | Print | Product List | Glossary On
Versions: 1 2 3 4 5 6 7 8 9 10 11 12 13 14 15 16 17 18 19 20 21 22 23 24 25 26 27 28 29 30 31 32 33 34 35 36 37 38 39 40 41 42 43 44 45 46 47 48 49 50
514
ASUS43 KLSX 231407
RWRMO
STLRWRMO ALL

WEATHER SUMMARY FOR MISSOURI
NATIONAL WEATHER SERVICE SPRINGFIELD MO
900 AM CDT THU MAR 23 2017

NOTE: "FAIR" INDICATES FEW OR NO CLOUDS BELOW 12,000 FEET WITH NO
       SIGNIFICANT WEATHER AND/OR OBSTRUCTIONS TO VISIBILITY.
       CURRENT SKY AND/OR WEATHER CONDITIONS ARE NOT AVAILABLE FOR
       CHILLICOTHE AND FARMINGTON.

MOZ001>031-035>038-043-044-053-054-231500-
...NORTHERN AND WESTERN MISSOURI...

CITY           SKY/WX    TMP DP  RH WIND       PRES   REMARKS
KANSAS CTY INT PTSUNNY   53  33  46 SE17      30.05F
KANSAS C DTWN  PTSUNNY   55  33  43 SE9       30.06F
LEE`S SUMMIT   CLOUDY    53  33  46 S13       30.08F
ST JOSEPH      CLOUDY    51  32  48 SE13      30.05F
CHILLICOTHE      N/A     45  33  63 SE13G18   30.13F
KIRKSVILLE     CLOUDY    39  33  79 SE17      30.18F WCI  30

$$
MOZ066>068-077>081-088>096-101>105-231500-
...SOUTHWEST MISSOURI...

CITY           SKY/WX    TMP DP  RH WIND       PRES   REMARKS
SPRINGFIELD    MOSUNNY   51  29  42 S24G32    30.13S
JOPLIN         PTSUNNY   54  38  54 SE18G25   30.09S
BRANSON        PTSUNNY   46  30  53 SE9       30.20S

$$
MOZ032>034-039>042-045>050-055>058-069>072-231500-
...CENTRAL MISSOURI...

CITY           SKY/WX    TMP DP  RH WIND       PRES   REMARKS
COLUMBIA       CLOUDY    43  32  65 SE13      30.18S
JEFFERSON CITY CLOUDY    48  30  49 E12       30.20S
ROLLA          CLOUDY    47  23  38 SE12      30.20R
SEDALIA        CLOUDY    52  28  39 SE12      30.14F
WHITEMAN AFB   PTSUNNY   53  29  39 S10G20    30.10F
WARRENSBURG    MOSUNNY   52  30  43 SE15      30.10F
OSAGE BEACH    CLOUDY   N/A N/A N/A SE9       30.18F

$$
MOZ051-052-059>065-231500-
...EAST CENTRAL MISSOURI...

CITY           SKY/WX    TMP DP  RH WIND       PRES   REMARKS
ST LOUIS INTL  CLOUDY    39  32  76 E14       30.30S
SPIRIT OF STL  CLOUDY    39  34  82 E8        30.29S
ST CHARLES     LGT RAIN  37  33  85 E14       30.31R WCI  28

$$
MOZ072>076-082>087-097>100-106>115-231500-
...SOUTH CENTRAL AND SOUTHEAST MISSOURI...

CITY           SKY/WX    TMP DP  RH WIND       PRES   REMARKS
CAPE GIRARDEAU CLOUDY    42  28  57 E8        30.31S
FARMINGTON     LGT RAIN  42  27  55 E8        30.29R
POPLAR BLUFF   CLOUDY    46  31  55 E8        30.30R
WEST PLAINS    PTSUNNY   49  26  41 SE13      30.25R

$$




USA.gov is the U.S. government's official web portal to all federal, state and local government web resources and services.